Kiana, AK

1:24 PM AKDT on March 27, 2017 (GMT -0800)
Baker Memorial

Weather History for PAIK - October, 2013

Change the Weather History Date:

Tuesday, October 8, 2013

  Actual Average (PASK) Record (PASK)
Temperature  
Mean Temperature 35 °F -  
Max Temperature 36 °F 30 °F 42 °F (2003)
Min Temperature 33 °F 22 °F 10 °F (2000)
Degree Days  
Heating Degree Days 30    
Moisture  
Dew Point 33 °F    
Average Humidity 92    
Maximum Humidity 100    
Minimum Humidity 79    
Precipitation  
Precipitation 0.00 in - - ()
Sea Level Pressure  
Sea Level Pressure 29.17 in    
Wind  
Wind Speed 14 mph (ENE)    
Max Wind Speed 23 mph    
Max Gust Speed 34 mph    
Visibility 9 miles    
Events Rain , Snow    
Averages and records for this station are not official NWS values.
T = Trace of Precipitation, MM = Missing Value Source: NWS Daily Summary

Daily Weather History Graph

Daily Weather History Graph

Search for Another Location

Airport or City:

Trip Planner

Search our weather history database for the weather conditions in past years. The results will help you decide how hot, cold, wet, or windy it might be!

Date:

Astronomy

Oct. 08, 2013 Rise Set
Actual Time 9:19 AM AKDT 7:37 PM AKDT
Civil Twilight 8:25 AM AKDT 8:31 PM AKDT
Nautical Twilight 7:23 AM AKDT 9:32 PM AKDT
Astronomical Twilight 6:17 AM AKDT 10:37 PM AKDT
Moon 3:27 PM AKDT (10/8) 8:21 PM AKDT (10/8)
Length of Visible Light 12h 05m
Length of Day
10h 18m
Waxing Crescent, 17% of the Moon is Illuminated
Oct 8
Waxing Crescent
Oct 11
First Quarter
Oct 18
Full
Oct 26
Last Quarter
Nov 3
New

Hourly Weather History & Observations

Time (AKDT) Temp. Windchill Dew Point Humidity Pressure Visibility Wind Dir Wind Speed Gust Speed Precip Events Conditions
12:01 AM 36.0 °F 28.5 °F 34.0 °F 93% 29.67 in 10.0 mi East 10.4 mph - N/A   Overcast
12:23 AM 35.6 °F 27.1 °F 33.8 °F 93% 29.53 in 10.0 mi East 12.7 mph 20.7 mph N/A   Overcast
1:01 AM 35.1 °F 27.9 °F 32.0 °F 89% 29.63 in 10.0 mi ENE 9.2 mph - N/A   Mostly Cloudy
1:13 AM 35.6 °F 29.2 °F 32.0 °F 87% 29.50 in 10.0 mi East 8.1 mph - N/A   Mostly Cloudy
2:01 AM 35.6 °F 25.2 °F 32.0 °F 87% 29.45 in 10.0 mi East 18.4 mph 26.5 mph N/A   Scattered Clouds
3:01 AM 35.1 °F 26.4 °F 32.0 °F 89% 29.54 in 10.0 mi ENE 12.7 mph 19.6 mph N/A   Overcast
3:14 AM 35.6 °F 25.5 °F 32.0 °F 87% 29.40 in 10.0 mi ENE 17.3 mph 27.6 mph N/A   Overcast
3:33 AM 35.6 °F 24.8 °F 32.0 °F 87% 29.38 in 10.0 mi East 19.6 mph 26.5 mph N/A   Overcast
4:01 AM 36.0 °F 25.6 °F 32.0 °F 86% 29.47 in 10.0 mi East 18.4 mph 27.6 mph N/A   Overcast
5:01 AM 36.0 °F 25.6 °F 30.9 °F 82% 29.42 in 10.0 mi ENE 18.4 mph 25.3 mph N/A   Mostly Cloudy
6:01 AM 37.0 °F 28.5 °F 30.9 °F 79% 29.37 in 10.0 mi ENE 13.8 mph 21.9 mph N/A   Overcast
7:01 AM 36.0 °F 27.5 °F 30.9 °F 82% 29.32 in 10.0 mi ENE 12.7 mph 24.2 mph N/A   Overcast
8:01 AM 36.0 °F 25.3 °F 30.9 °F 82% 29.26 in 10.0 mi East 19.6 mph 33.4 mph 0.00 in Rain Light Rain
8:12 AM 35.6 °F 24.5 °F 32.0 °F 87% 29.13 in 8.0 mi East 20.7 mph 32.2 mph 0.00 in Snow Light Snow
8:26 AM 33.8 °F 23.2 °F 32.0 °F 93% 29.12 in 5.0 mi East 17.3 mph 27.6 mph 0.00 in Snow Light Snow
8:35 AM 33.8 °F 23.2 °F 33.8 °F 100% 29.11 in 6.0 mi ENE 17.3 mph 27.6 mph 0.00 in Snow Light Snow
8:46 AM 33.8 °F 23.2 °F 33.8 °F 100% 29.10 in 6.0 mi East 17.3 mph 28.8 mph 0.00 in Snow Light Snow
9:01 AM 34.0 °F 23.0 °F 33.1 °F 96% 29.21 in 6.0 mi ENE 18.4 mph 26.5 mph 0.00 in Snow Light Snow
9:25 AM 33.8 °F 23.2 °F 33.8 °F 100% 29.07 in 8.0 mi ENE 17.3 mph 29.9 mph 0.00 in Snow Light Snow
10:01 AM 35.1 °F 24.8 °F 33.1 °F 92% 29.17 in 8.0 mi East 17.3 mph 31.1 mph 0.00 in Snow Light Snow
11:01 AM 34.0 °F 22.4 °F 33.1 °F 96% 29.13 in 5.0 mi East 20.7 mph 33.4 mph 0.00 in Snow Light Snow
11:16 AM 33.8 °F 21.6 °F 33.8 °F 100% 29.00 in 5.0 mi East 23.0 mph 34.5 mph 0.00 in Rain Light Rain
12:01 PM 35.1 °F 23.8 °F 33.1 °F 92% 29.10 in 10.0 mi East 20.7 mph 34.5 mph 0.00 in Rain Light Rain
1:01 PM 35.1 °F 23.8 °F 33.1 °F 92% 29.09 in 9.0 mi East 20.7 mph 32.2 mph 0.00 in Rain Light Rain
1:45 PM 35.6 °F 25.9 °F 33.8 °F 93% 28.96 in 6.0 mi East 16.1 mph 28.8 mph 0.00 in   Overcast
2:01 PM 35.1 °F 25.2 °F 34.0 °F 96% 29.08 in 7.0 mi East 16.1 mph 26.5 mph 0.00 in   Overcast
2:38 PM 33.8 °F 23.9 °F 33.8 °F 100% 28.94 in 9.0 mi East 15.0 mph 25.3 mph 0.00 in   Overcast
3:01 PM 35.1 °F 25.9 °F 33.1 °F 92% 29.06 in 10.0 mi East 13.8 mph 25.3 mph 0.00 in   Overcast
4:01 PM 36.0 °F 25.6 °F 34.0 °F 93% 29.05 in 10.0 mi East 18.4 mph 25.3 mph 0.00 in Rain Light Rain
4:22 PM 35.6 °F 26.2 °F 33.8 °F 93% 28.94 in 10.0 mi East 15.0 mph 21.9 mph 0.00 in Rain Light Rain
4:53 PM 37.4 °F 28.5 °F 33.8 °F 87% 28.93 in 10.0 mi East 15.0 mph 23.0 mph 0.00 in   Overcast
5:01 PM 36.0 °F 27.1 °F 34.0 °F 93% 29.06 in 10.0 mi East 13.8 mph 19.6 mph 0.00 in Rain Light Rain
6:01 PM 35.1 °F 27.4 °F 34.0 °F 96% 29.07 in 10.0 mi East 10.4 mph 19.6 mph 0.00 in Rain Light Rain
6:23 PM 35.6 °F 27.1 °F 33.8 °F 93% 28.94 in 10.0 mi East 12.7 mph 19.6 mph 0.00 in Rain Light Rain
6:30 PM 35.6 °F 28.6 °F 33.8 °F 93% 28.95 in 10.0 mi East 9.2 mph 19.6 mph 0.00 in Rain Light Rain
7:01 PM 35.6 °F 27.5 °F 33.8 °F 93% 28.95 in 10.0 mi East 11.5 mph 19.6 mph 0.00 in Rain Light Rain
7:31 PM 35.6 °F 29.9 °F 33.8 °F 93% 28.95 in 10.0 mi East 6.9 mph 18.4 mph 0.00 in Rain Light Rain
8:01 PM 35.1 °F 31.0 °F 33.1 °F 92% 29.09 in 10.0 mi East 4.6 mph - 0.00 in   Overcast
9:01 PM 36.0 °F 29.0 °F 34.0 °F 93% 29.10 in 10.0 mi ENE 9.2 mph - 0.00 in   Overcast
10:01 PM 36.0 °F 32.1 °F 34.0 °F 93% 29.11 in 10.0 mi ENE 4.6 mph - 0.00 in   Overcast
11:01 PM 36.0 °F 32.1 °F 34.0 °F 93% 29.13 in 10.0 mi East 4.6 mph - 0.00 in Rain Light Rain
11:12 PM 35.6 °F 30.7 °F 33.8 °F 93% 29.01 in 10.0 mi ENE 5.8 mph - 0.00 in Rain Light Rain
11:29 PM 35.6 °F 32.8 °F 33.8 °F 93% 29.02 in 10.0 mi WNW 3.5 mph - 0.00 in Rain Light Rain